| time (UTC) | temp F | wind direction | speed MPH | gust MPH | rain 1hr in | rain 24hr in | rain mn in | humidity % | barometer mb |
| 20260504213055 | 69 | 284 | 7.0 | 14.0 | 0.00 | 0.00 | 0.00 | 45 | 1011.3 |
| 20260504211543 | 69 | 310 | 7.0 | 15.0 | 0.00 | 0.00 | 0.00 | 44 | 1011.3 |
| 20260504210042 | 68 | 288 | 2.0 | 15.0 | 0.00 | 0.00 | 0.00 | 43 | 1011.3 |
| 20260504204546 | 68 | 280 | 9.0 | 19.0 | 0.00 | 0.00 | 0.00 | 43 | 1011.3 |
| 20260504203049 | 68 | 268 | 4.0 | 16.0 | 0.00 | 0.00 | 0.00 | 46 | 1011.2 |
| 20260504201537 | 68 | 288 | 7.0 | 12.0 | 0.00 | 0.00 | 0.00 | 47 | 1011.3 |
| 20260504200036 | 66 | 284 | 6.0 | 16.0 | 0.00 | 0.00 | 0.00 | 50 | 1011.4 |
| 20260504194536 | 67 | 286 | 10.0 | 20.0 | 0.00 | 0.00 | 0.00 | 46 | 1011.5 |
| 20260504193035 | 67 | 277 | 10.0 | 18.0 | 0.00 | 0.00 | 0.00 | 45 | 1011.7 |
| 20260504191532 | 68 | 287 | 6.0 | 22.0 | 0.00 | 0.00 | 0.00 | 47 | 1011.6 |
| 20260504190031 | 68 | 213 | 7.0 | 20.0 | 0.00 | 0.00 | 0.00 | 47 | 1011.7 |
| 20260504184528 | 67 | 281 | 6.0 | 20.0 | 0.00 | 0.00 | 0.00 | 47 | 1012.1 |
| 20260504183026 | 68 | 284 | 7.0 | 16.0 | 0.00 | 0.00 | 0.00 | 46 | 1012.2 |
| 20260504181525 | 67 | 295 | 13.0 | 28.0 | 0.00 | 0.00 | 0.00 | 43 | 1012.3 |
| 20260504180024 | 67 | 292 | 10.0 | 20.0 | 0.00 | 0.00 | 0.00 | 45 | 1012.2 |
| 20260504174521 | 67 | 285 | 7.0 | 17.0 | 0.00 | 0.00 | 0.00 | 44 | 1012.7 |
| 20260504173018 | 66 | 284 | 6.0 | 21.0 | 0.00 | 0.00 | 0.00 | 48 | 1012.8 |
| 20260504171515 | 65 | 268 | 7.0 | 20.0 | 0.00 | 0.00 | 0.00 | 48 | 1012.8 |
| 20260504150103 | 61 | 288 | 7.0 | 21.0 | 0.00 | 0.00 | 0.00 | 53 | 1014.3 |
| 20260504090105 | 42 | 294 | 3.0 | 7.0 | 0.00 | 0.01 | 0.00 | 70 | 1014.9 |
| 20260504081553 | 43 | 289 | 3.0 | 8.0 | 0.00 | 0.01 | 0.00 | 67 | 1014.9 |
| 20260504044542 | 43 | 310 | 3.0 | 7.0 | 0.00 | 0.01 | 0.00 | 63 | 1015.0 |
| 20260504043033 | 43 | 274 | 4.0 | 8.0 | 0.00 | 0.01 | 0.00 | 62 | 1015.2 |
| 20260504041531 | 43 | 288 | 3.0 | 7.0 | 0.00 | 0.01 | 0.00 | 63 | 1015.1 |
| 20260504040032 | 43 | 292 | 4.0 | 9.0 | 0.00 | 0.01 | 0.00 | 63 | 1015.0 |
| 20260504034527 | 42 | 288 | 4.0 | 8.0 | 0.00 | 0.01 | 0.01 | 62 | 1014.8 |
| 20260504033025 | 42 | 305 | 3.0 | 8.0 | 0.00 | 0.01 | 0.01 | 62 | 1014.5 |
| 20260504031528 | 42 | 321 | 5.0 | 13.0 | 0.00 | 0.01 | 0.01 | 62 | 1014.5 |
| 20260504030025 | 42 | 296 | 4.0 | 8.0 | 0.00 | 0.01 | 0.01 | 60 | 1014.5 |
| 20260504024523 | 41 | 293 | 3.0 | 9.0 | 0.00 | 0.01 | 0.01 | 61 | 1014.5 |
| 20260504023023 | 40 | 294 | 4.0 | 9.0 | 0.00 | 0.01 | 0.01 | 65 | 1014.4 |
| 20260504021522 | 40 | 297 | 3.0 | 7.0 | 0.00 | 0.01 | 0.01 | 67 | 1014.3 |
| 20260504020023 | 40 | 295 | 1.0 | 3.0 | 0.00 | 0.01 | 0.01 | 67 | 1014.2 |
| 20260504014523 | 41 | 296 | 2.0 | 4.0 | 0.00 | 0.01 | 0.01 | 66 | 1014.1 |
| 20260504013029 | 41 | 296 | 1.0 | 3.0 | 0.00 | 0.01 | 0.01 | 63 | 1013.9 |
| 20260504011521 | 41 | 297 | 2.0 | 3.0 | 0.00 | 0.01 | 0.01 | 62 | 1014.0 |
| 20260504010020 | 42 | 297 | 2.0 | 4.0 | 0.00 | 0.01 | 0.01 | 61 | 1013.7 |
| 20260504004521 | 43 | 297 | 1.0 | 3.0 | 0.00 | 0.01 | 0.01 | 59 | 1013.6 |
| 20260504003022 | 43 | 297 | 1.0 | 2.0 | 0.00 | 0.01 | 0.01 | 57 | 1013.4 |
| 20260504001520 | 44 | 298 | 1.0 | 3.0 | 0.00 | 0.01 | 0.01 | 57 | 1013.1 |
| 20260504000018 | 45 | 299 | 2.0 | 4.0 | 0.00 | 0.01 | 0.01 | 57 | 1013.1 |
| 20260503234518 | 46 | 300 | 3.0 | 8.0 | 0.00 | 0.01 | 0.01 | 55 | 1013.1 |
| 20260503233018 | 46 | 299 | 5.0 | 8.0 | 0.00 | 0.01 | 0.01 | 55 | 1012.9 |
| 20260503231521 | 47 | 304 | 1.0 | 10.0 | 0.00 | 0.01 | 0.01 | 55 | 1012.8 |
| 20260503230018 | 48 | 320 | 3.0 | 13.0 | 0.00 | 0.01 | 0.01 | 53 | 1012.8 |
| 20260503224517 | 48 | 330 | 5.0 | 16.0 | 0.00 | 0.01 | 0.01 | 53 | 1012.5 |
| 20260503223017 | 48 | 1 | 7.0 | 17.0 | 0.00 | 0.01 | 0.01 | 53 | 1012.5 |
| 20260503221516 | 48 | 326 | 6.0 | 17.0 | 0.00 | 0.01 | 0.01 | 52 | 1012.3 |
| 20260503220016 | 49 | 333 | 7.0 | 13.0 | 0.00 | 0.01 | 0.01 | 53 | 1012.2 |
| 20260503214515 | 49 | 309 | 4.0 | 16.0 | 0.00 | 0.01 | 0.01 | 52 | 1012.1 |